DELTA 1 DEB, 42082

Orbit data source: Space-Track

DELTA 1 DEB, 42082 is space debris in SSO originally from a launch on Sun, 15 Dec 1968 UTC launched from the Air Force Western Test Range (AFWTR). Debris objects in space refer to the collection of defunct objects orbiting the Earth. Examples of debris include non-operational satellites, rocket bodies, and fragments generated from explosions, collisions, or faulty payload assembly.

Loading next visibility...
Identifier
42082, 1968-114J
Orbit
SSO
Last TLE update
20 hours ago
Origin
Manufacturer
Aerojet
Mission
Spacecraft
Bus & Motor
Unknown
Mass
Unknown
Launch date (UTC)
1968-12-15 (57 years ago)
Launch vehicle
Unknown
Launch site
Air Force Western Test Range (AFWTR)
Object type
Payload
Rocket body
Debris
Shape & HBR
Unknown
Radar Cross Section
Small (<0.1 m²)

Expand to show TLE details & history

TLE from 20 hours ago
0 DELTA 1 DEB
1 42082U 68114J   25181.59283073  .00000069  00000-0  81378-3 0  9995
2 42082 101.9283 129.8915 0085487 248.7734 286.8807 12.42740661987673
Epoch: 2025-06-30T14:13Z
TLE epoch observation values (Epoch: 2025-06-30T14:13:40.575Z)
Latitude
5.09606°
Longitude
178.64617°
Altitude
1,478.029 km
Speed
7.133 km/s
True Right ascension
20h 43m 51s
True Declination
5° 04' 07"
Sunlit
Object was in full shadow at epoch
Visualization orbit readout
Latitude
1.97899°
Longitude
-2.01081°
Altitude
1,525.227 km
Speed
7.091 km/s
Apparent Right ascension
09h 15m 30s
Apparent Declination
-16° 49' 24"
Sunlit
Object is in daylight
Visualization observer readout
Local Sidereal Time
22:11:06
Azimuth
31.57° NE
Elevation
-63.945°
Doppler factor
1
Orbital elements
Apogee altitude
1,559.858 km
Perigee altitude
1,425.289 km
Semi-major axis
7,870.71 km
Eccentricity
0.00855
Inclination
101.9283°
RAAN
129.8915°
Arg. of periapsis
248.7734°
True anomaly
Unknown
Mean anomaly
286.8807°
Eccentric anomaly
Unknown
Mean motion
3.1083 °/min
Orbital period
115.82 mins
BSTAR
0.00081378
Loading maneuver chart data...
Loading SW <> Apogee altitude chart data...
Loading historical data...
Loading historical data...
Loading historical data...
Loading historical data...
Loading historical data...
Loading historical data...
Loading historical data...

DELTA 1 DEB Visibility forecast

Observer location: undefined°, undefined°

Span
Click to sort rows by Start time (UTC) header in descending order
Start Az.
Max El. time (UTC)
Max El. Az.
Max El.
End time (UTC)
End Az.
13 mins2025-07-01 11:08:38.797Z355.611° N2025-07-01 11:14:38.797Z306.236° NW26.32°2025-07-01 11:21:38.797Z249.548° W
11 mins2025-07-01 18:27:38.797Z89.721° E2025-07-01 18:32:38.797Z48.845° ENE21.336°2025-07-01 18:38:38.797Z5.242° NNE
16 mins2025-07-01 20:17:38.797Z160.661° S2025-07-01 20:24:38.797Z175.711° S44.927°2025-07-01 20:33:38.797Z342.399° N
9 mins2025-07-01 22:15:38.797Z238.784° WSW2025-07-01 22:19:38.797Z269.678° W17.325°2025-07-01 22:24:38.797Z306.325° NW
13 mins2025-07-02 08:27:38.797Z42.448° NE2025-07-02 08:33:38.797Z99.941° ESE29.823°2025-07-02 08:40:38.797Z159.327° S
12 mins2025-07-02 10:20:38.797Z5.614° NNE2025-07-02 10:27:38.797Z289.523° WNW38.867°2025-07-02 10:32:38.797Z230.602° WSW
|